Погода в Мо

Франция     48°57′25″N   2°52′35″E
темп.,
°C
ветер,
м/с
пор.,
м/с
влажн.,
%
обл.,
%
осадки,
мм/ч
давл.,
гПа
погр.,
м
9 мая, вс
вс923:00+13ююв339053 0.0 100840
02:00+12юв4990100 0.0 1006126
05:00+13юв4109398 0.6 1003173
08:00+14ю51487100 0.8 1003403
11:00+19ю7137294 0.1 1002907
14:00+22ю8116029 0.1 10021262
17:00+24ююв7116297 0.0 9992001
20:00+16юз5129199 3.6 1001816
10 мая, пн
пн1023:00+14ю4996100 2.0 1002426
02:00+13ююв3895100 2.4 1000257
05:00+12ююз51196100 3.5 1001579
08:00+11юз61293100 3.9 1005784
11:00+13ююз7107990 0.1 10071169
14:00+14ююз5873100 0.5 10081214
17:00+15ююз4768100 0.2 1008840
20:00+13ю3579100 0.3 1008127
11 мая, вт
вт1123:00+11ююв3684100 0.0 1009127
02:00+9ю3793100 0.0 1009163
05:00+8юв3396100 0.1 100965
08:00+10юв2389100 0.1 1009137
11:00+14ююв237381 0.3 1008600
14:00+15ююз3373100 2.5 1008880
17:00+9зсз71293100 2.4 1010486
20:00+9з2693100 3.8 1011248
12 мая, ср
ср1223:00+8ююз339296 0.0 101247
02:00+8юз3796100 0.0 1013169
05:00+6зюз35966 0.0 101394
08:00+7юз34934 0.0 1014182
11:00+12зюз45675 0.0 1013953
14:00+15зюз245165 0.0 10121886
17:00+15юз236534 0.2 1011965
20:00+13ююв467468 0.4 1011134
13 мая, чт
чт1323:00+9ююв227948 0.1 101234
02:00+7ююв22895 0.1 101219
05:00+6ююв229127 0.0 101115
08:00+8ююв238594 0.0 1011159
11:00+9ю2389100 0.4 1011280
14:00+10зюз228996 0.7 1011333
17:00+14зюз237051 0.1 10101062
20:00+13сз127810 0.3 101052